Regional Weather Roundup
Issued by NWS Nashville, TN

Home | Current Version | Previous Version | Text Only | Print | Product List | Glossary On
Versions: 1 2 3 4 5 6 7 8 9 10 11 12 13 14 15 16 17 18 19 20 21 22 23 24 25 26 27 28 29 30 31 32 33 34 35 36 37 38 39 40 41 42 43 44 45 46 47 48 49 50
000
ASUS44 KOHX 311915
RWROHX
MIDDLE TENNESSEE HOURLY WEATHER ROUNDUP
NATIONAL WEATHER SERVICE NASHVILLE TN
200 PM CDT FRI OCT 31 2014

NOTE: "FAIR" INDICATES FEW OR NO CLOUDS BELOW 12,000 FEET WITH
NO SIGNIFICANT WEATHER AND/OR OBSTRUCTIONS TO VISIBILITY.

* THESE REPORTS ARE NOT UNDER NWS QUALITY CONTROL AND MAY NOT
  REPORT WEATHER SUCH AS PRECIPITATION AND FOG.


TNZ005>011-023>034-057-059-062>066-078-080-312000
...NORTHERN MIDDLE TENNESSEE...

CITY           SKY/WX    TMP DP  RH WIND       PRES   REMARKS
CLARKSVILLE    CLOUDY    42  35  76 NW22G29   30.09R
CROSSVILLE     CLOUDY    48  40  73 NW10      29.93F
GALLATIN       CLOUDY    50  45  83 NW6       29.99F
DICKSON        CLOUDY    46  41  81 NW14      30.03F
LEBANON        PTSUNNY   49  44  83 NW9       29.98S
NASHVILLE      CLOUDY    52  43  71 NW12      30.00F
WEST NASHVILLE CLOUDY    48  45  87 NW8       30.01F
PORTLAND       PTSUNNY   43  39  87 N20G37    30.01R
ROCKWOOD       CLOUDY    48  40  74 NW8       29.90F
SMYRNA         CLOUDY    50  44  79 NW10      30.01S
SPARTA         CLOUDY    48  45  87 NW10      29.94F
$$
TNZ056-058-060-061-075>077-079-093>097-312000
...SOUTHERN MIDDLE TENNESSEE...

CITY           SKY/WX    TMP DP  RH WIND       PRES   REMARKS
COLUMBIA       CLOUDY    48  48 100 NW7       30.01S
FAYETTEVILLE   CLOUDY    50  45  81 N10       29.98S
MCMINNVILLE    CLOUDY    50  46  87 NW6       29.95F
SHELBYVILLE    CLOUDY    52  46  82 NW15      29.99S
TULLAHOMA      CLOUDY    50  45  81 N14       29.97S
WINCHESTER     CLOUDY    52  45  76 N8        29.96S
$$


...KEY TO REMARKS...
VSB - VISIBILITY IN MILES
WCI - WIND CHILL INDEX
HX  - HEAT INDEX




USA.gov is the U.S. government's official web portal to all federal, state and local government web resources and services.